Alabaster, AL

9:22 PM CDT on October 18, 2019 (GMT -0500)
Shelby County

Weather History for KEET - September, 2019

Change the Weather History Date:

Sunday, September 15, 2019

  Actual Average Record
Temperature  
Mean Temperature 83 °F 75 °F  
Max Temperature 95 °F 85 °F 101 °F (1980)
Min Temperature 71 °F 64 °F 46 °F (1964)
Degree Days  
Heating Degree Days 0 0  
Month to date heating degree days 0 0  
Since 1 July heating degree days 0 0  
Cooling Degree Days 18 10  
Month to date cooling degree days 265 176  
Year to date cooling degree days 2085 1774  
Growing Degree Days 32 (Base 50)    
Moisture  
Dew Point 68 °F    
Average Humidity 65    
Maximum Humidity 90    
Minimum Humidity 39    
Precipitation  
Precipitation 0.00 in 0.13 in 0.72 in (1977)
Month to date precipitation 0.38 2.01  
Year to date precipitation 33.87 40.09  
Sea Level Pressure  
Sea Level Pressure 30.08 in    
Wind  
Wind Speed 3 mph (NE)    
Max Wind Speed 10 mph    
Max Gust Speed 16 mph    
Visibility 10 miles    
Events      
T = Trace of Precipitation, MM = Missing Value Source: NWS Daily Summary

Daily Weather History Graph

Daily Weather History Graph

Search for Another Location

Airport or City:

Astronomy

Sep. 15, 2019 Rise Set
Actual Time 6:30 AM CDT 6:53 PM CDT
Civil Twilight 6:05 AM CDT 7:18 PM CDT
Nautical Twilight 5:36 AM CDT 7:47 PM CDT
Astronomical Twilight 5:06 AM CDT 8:17 PM CDT
Moon 8:04 PM CDT (9/15) 7:39 AM CDT (9/15)
Length of Visible Light 13h 12m
Length of Day
12h 23m
Full, 98% of the Moon is Illuminated
Sep 15
Full
Sep 21
Last Quarter
Sep 28
New
Oct 5
First Quarter
Oct 13
Full

Hourly Weather History & Observations

Time (CDT) Temp. Heat Index Dew Point Humidity Pressure Visibility Wind Dir Wind Speed Gust Speed Precip Events Conditions
12:53 AM 75.9 °F - 69.1 °F 79% 30.12 in 10.0 mi Calm Calm - N/A   Clear
1:53 AM 75.9 °F - 69.1 °F 79% 30.12 in 10.0 mi Calm Calm - N/A   Clear
2:53 AM 75.9 °F - 69.1 °F 79% 30.11 in 10.0 mi Calm Calm - N/A   Clear
3:53 AM 75.0 °F - 69.1 °F 82% 30.11 in 10.0 mi Calm Calm - N/A   Clear
4:53 AM 73.9 °F - 69.1 °F 85% 30.11 in 9.0 mi Variable 3.5 mph - N/A   Clear
5:53 AM 73.0 °F - 69.1 °F 87% 30.12 in 9.0 mi Calm Calm - N/A   Clear
6:53 AM 72.0 °F - 68.0 °F 87% 30.13 in 7.0 mi Calm Calm - N/A   Clear
7:53 AM 75.9 °F - 69.1 °F 79% 30.14 in 9.0 mi NE 5.8 mph - N/A   Clear
8:53 AM 79.0 °F - 69.1 °F 72% 30.15 in 10.0 mi Variable 5.8 mph - N/A   Clear
9:53 AM 82.0 °F 85.5 °F 69.1 °F 65% 30.14 in 10.0 mi Variable 4.6 mph - N/A   Clear
10:53 AM 87.1 °F 89.9 °F 66.9 °F 51% 30.13 in 10.0 mi Variable 3.5 mph - N/A   Clear
11:53 AM 88.0 °F 90.7 °F 66.9 °F 49% 30.12 in 10.0 mi Variable 5.8 mph - N/A   Mostly Cloudy
12:53 PM 91.0 °F 93.8 °F 66.0 °F 44% 30.09 in 10.0 mi NNE 6.9 mph - N/A   Partly Cloudy
1:53 PM 93.9 °F 97.0 °F 66.0 °F 40% 30.06 in 10.0 mi ENE 6.9 mph - N/A   Scattered Clouds
2:53 PM 93.9 °F 96.1 °F 64.9 °F 38% 30.02 in 10.0 mi ENE 8.1 mph - N/A   Partly Cloudy
3:53 PM 93.0 °F 95.9 °F 66.0 °F 41% 30.01 in 10.0 mi Variable 3.5 mph - N/A   Clear
4:53 PM 91.9 °F 94.5 °F 66.0 °F 42% 30.01 in 10.0 mi Variable 4.6 mph - N/A   Partly Cloudy
5:53 PM 91.0 °F 93.8 °F 66.0 °F 44% 30.01 in 10.0 mi Variable 6.9 mph - N/A   Clear
6:53 PM 88.0 °F 90.3 °F 66.0 °F 48% 30.01 in 10.0 mi Calm Calm - N/A   Clear
7:53 PM 80.1 °F 82.9 °F 69.1 °F 69% 30.02 in 10.0 mi Calm Calm - N/A   Clear
8:53 PM 78.1 °F - 70.0 °F 76% 30.03 in 10.0 mi Calm Calm - N/A   Clear
9:53 PM 75.0 °F - 70.0 °F 84% 30.05 in 10.0 mi Calm Calm - N/A   Clear
10:53 PM 73.9 °F - 69.1 °F 85% 30.05 in 10.0 mi Calm Calm - N/A   Clear
11:53 PM 73.0 °F - 69.1 °F 87% 30.04 in 10.0 mi Calm Calm - N/A   Clear